Wind_Speed
25 24 23 21 19 17 15 13 12 10 8 6 6 5 4 3 2 3 4 4 5 6 7 7 7 7 7 7 7 7 7 7 8 7 7 7 7 6 6 5 4 3 3 3
27 27 25 23 21 20 18 16 14 13 10 8 8 7 6 5 4 4 4 4 4 5 6 6 6 6 6 6 7 7 7 7 7 7 7 7 7 7 6 6 5 4 3 3
29 28 26 25 23 22 20 18 17 15 12 11 10 9 8 7 6 5 4 4 4 5 5 6 6 6 6 6 6 6 7 7 7 7 7 6 6 7 7 6 5 4 4 4
30 29 28 26 25 23 22 20 19 17 15 14 12 10 11 10 9 8 6 6 5 5 5 6 6 6 6 6 6 6 6 7 7 7 7 6 6 6 6 6 5 6 5 5
30 29 28 28 26 25 24 22 21 19 18 17 15 13 12 11 10 9 8 8 7 7 6 7 7 7 7 7 7 6 6 7 7 7 7 7 6 6 6 6 6 6 6 6
31 29 29 29 28 27 26 23 22 21 20 20 18 15 14 13 11 10 10 9 9 8 8 8 9 8 8 7 7 7 7 7 8 8 8 8 7 6 6 6 6 6 7 7
31 30 30 29 29 28 27 25 24 23 23 22 19 18 16 14 13 12 12 11 11 10 9 9 9 9 8 7 7 7 8 8 8 8 8 8 7 7 7 7 7 7 8 8
31 32 31 30 29 28 27 27 25 23 22 22 21 20 17 15 14 14 14 13 12 12 11 10 10 10 10 9 8 8 9 9 10 9 9 9 9 9 8 9 9 8 9 9
31 32 31 30 30 29 28 28 26 24 23 21 21 21 18 17 16 16 15 15 14 14 13 12 11 11 10 10 10 10 10 10 11 11 10 10 10 9 10 10 10 10 10 10
31 31 30 30 30 30 29 28 28 26 24 22 21 21 19 18 17 16 16 16 16 16 15 14 13 12 12 12 12 12 12 12 12 12 12 11 11 11 11 11 10 11 11 12
31 31 30 30 30 30 29 29 29 27 26 21 19 20 19 18 18 17 17 17 17 17 17 15 14 14 14 14 14 14 13 13 14 13 13 13 13 12 12 12 12 12 12 12
31 31 30 30 29 30 29 29 28 28 27 25 20 20 21 20 19 19 18 18 18 18 18 17 16 15 15 15 15 15 15 15 15 15 13 13 13 13 14 14 13 13 13 13
31 31 30 29 30 30 30 30 29 28 27 25 22 21 22 21 20 20 20 19 19 18 18 17 17 16 16 16 16 16 15 15 15 16 15 15 15 16 16 16 15 14 14 14
31 31 30 28 29 29 30 29 29 28 27 25 23 22 22 21 20 20 20 20 19 18 18 18 18 18 18 17 17 17 16 16 16 16 16 17 18 18 19 17 16 15 15 15
31 31 31 30 30 29 29 29 29 28 27 25 24 23 22 22 21 21 21 21 20 20 19 19 19 19 19 19 18 19 18 18 17 17 17 18 19 19 18 17 17 16 16 16
32 31 31 31 30 30 29 29 29 28 28 26 25 24 23 23 22 21 21 22 21 21 21 20 20 20 21 20 20 20 20 20 19 19 19 19 18 17 17 17 17 17 17 17
32 31 31 30 30 30 31 29 28 28 28 27 26 25 24 23 23 22 23 23 22 23 23 22 22 22 21 21 21 21 21 20 20 20 20 20 19 18 19 18 18 18 18 19
31 31 30 29 30 31 30 29 29 28 28 27 26 25 25 23 23 24 23 23 23 24 24 24 23 22 22 22 22 22 22 21 21 20 21 21 20 19 19 19 19 19 20 21
31 31 30 29 30 31 31 30 29 28 28 27 26 25 24 23 23 24 24 24 24 23 24 24 23 23 23 23 23 23 22 22 22 22 22 22 21 20 20 21 21 21 22 23
30 31 31 30 29 30 30 29 28 27 28 28 26 25 24 23 23 23 24 24 24 23 24 24 23 23 24 25 24 25 24 23 24 24 23 23 22 22 22 22 22 23 24 24
30 31 31 30 29 29 28 28 28 28 26 26 25 24 23 23 23 23 23 24 24 24 24 24 24 24 24 24 25 24 25 25 24 23 24 24 23 23 23 23 23 23 24 24
29 30 31 31 30 29 29 28 28 27 26 25 24 24 24 23 23 22 22 23 24 24 25 25 24 24 25 25 25 25 25 26 25 25 25 24 24 24 24 24 24 24 24 24
30 30 30 31 30 30 28 28 27 26 26 25 25 25 24 24 24 24 24 24 24 25 25 25 25 24 25 25 25 25 26 26 25 24 24 24 24 24 24 24 25 24 24 24
29 29 30 30 30 29 28 27 27 26 26 26 25 25 25 25 25 24 23 23 24 25 25 25 25 25 24 25 25 26 25 24 25 25 25 25 24 24 24 24 24 25 25 25
28 27 28 29 29 28 28 27 27 27 27 26 25 25 25 26 25 24 23 23 23 24 24 25 25 25 25 24 24 24 24 24 24 25 24 24 24 24 23 23 24 24 25 25
28 28 28 29 28 28 28 28 27 27 27 26 26 26 25 25 25 24 24 24 24 24 24 25 25 25 24 24 24 24 24 24 24 24 24 24 24 22 22 22 23 23 23 24
Wind_Direction
231 231 230 230 228 228 229 228 233 237 236 234 236 237 242 259 288 332 346 348 357 14 22 23 22 22 23 25 27 28 29 32 33 33 32 30 31 29 33 32 24 12 2 351
230 230 229 229 228 228 229 230 233 238 239 237 236 237 247 261 271 295 315 318 331 348 5 11 12 12 13 17 19 19 20 22 23 24 23 24 23 18 14 13 11 6 5 359
229 230 230 229 229 229 230 231 235 241 242 240 239 244 251 254 260 271 286 289 309 322 338 349 352 353 356 359 2 5 8 10 11 11 8 7 11 13 12 10 10 10 6 358
227 228 229 229 229 230 231 232 235 240 242 243 240 244 253 250 253 256 262 269 283 301 312 322 329 336 338 342 343 346 352 354 353 354 357 352 350 354 358 2 1 5 1 351
227 227 227 228 229 229 231 232 235 238 241 244 243 238 248 248 246 245 248 254 267 282 294 306 314 323 324 324 327 327 331 334 334 336 339 336 334 334 339 347 348 344 345 341
228 226 227 228 228 229 230 232 234 237 238 241 242 242 242 244 240 240 246 249 257 266 279 292 303 313 318 318 319 317 321 322 322 322 326 327 322 320 321 327 332 332 332 331
226 225 226 227 227 227 228 229 232 234 235 239 242 242 241 241 237 241 244 247 252 260 271 285 294 301 307 311 317 316 318 317 316 316 317 318 314 312 306 307 314 317 320 320
226 226 226 226 227 228 228 228 228 232 237 242 244 244 245 241 236 238 241 245 251 256 265 278 288 291 297 301 305 308 313 314 314 312 311 311 310 310 304 299 302 307 312 315
224 227 226 226 226 226 227 227 229 234 235 238 246 248 246 241 237 237 239 244 250 256 262 270 280 284 287 292 296 301 306 309 311 308 307 306 305 302 300 296 295 301 307 311
223 226 225 225 226 226 227 227 227 229 233 238 246 247 245 242 239 239 240 245 251 255 260 265 271 278 281 284 289 294 297 302 308 309 306 302 300 297 295 292 295 297 300 304
223 225 226 225 225 227 226 227 228 231 233 235 241 248 246 242 239 240 242 245 249 252 256 262 268 271 275 280 284 289 291 294 299 301 300 298 295 293 290 289 290 291 295 298
221 223 225 226 226 227 228 230 231 233 236 233 232 246 247 243 242 242 242 244 247 249 252 258 262 266 272 276 281 285 286 288 291 295 297 292 289 290 292 290 289 288 291 294
220 221 223 225 227 227 228 229 231 232 236 236 233 240 246 243 243 241 241 243 246 247 249 253 257 263 269 274 277 279 281 284 288 292 292 289 287 290 290 290 289 288 288 293
221 221 220 223 228 228 228 229 230 230 232 235 234 236 244 243 242 242 240 241 244 245 246 250 256 264 267 271 274 275 278 282 286 288 289 288 287 286 288 288 289 288 288 291
220 222 222 222 226 228 230 231 231 231 231 233 237 239 240 242 242 241 240 241 241 245 248 251 257 263 266 268 270 272 272 277 282 286 287 287 286 283 284 285 285 286 288 289
219 221 223 225 227 228 229 230 231 232 233 234 237 240 240 241 240 240 240 240 242 245 248 251 255 261 265 265 267 270 271 274 279 283 285 288 286 283 284 284 282 284 288 290
221 222 223 226 228 230 231 230 231 233 234 236 238 240 241 241 239 238 238 240 243 245 247 249 254 259 262 264 267 268 272 275 278 280 283 285 285 286 287 284 282 282 284 287
221 222 223 226 228 229 232 232 233 235 236 237 238 239 240 240 239 238 238 239 241 244 246 250 253 258 260 261 263 265 268 272 275 278 281 284 284 283 283 283 280 280 283 285
221 222 223 225 229 232 233 233 233 235 236 236 236 238 238 238 238 237 237 238 240 243 245 249 253 256 258 259 260 261 265 269 273 274 276 279 280 279 279 279 279 281 283 284
221 222 224 225 227 232 235 233 233 234 235 235 235 236 236 235 237 237 237 238 240 242 245 249 254 257 257 259 262 262 263 268 271 272 273 275 277 278 277 278 278 280 282 282
221 222 223 225 227 231 232 232 231 232 234 235 235 235 234 234 235 237 237 238 240 243 246 250 253 256 258 260 264 267 268 269 271 272 273 274 274 275 277 278 279 280 281 281
222 224 224 224 227 230 231 231 230 231 232 233 232 231 232 234 236 237 237 239 241 244 247 250 254 257 260 263 266 269 270 272 272 272 273 273 274 275 276 277 278 280 280 281
221 223 225 225 226 228 231 231 231 230 230 230 230 230 232 234 236 237 238 240 243 245 249 253 256 261 264 265 267 269 271 271 271 271 272 274 275 276 276 277 277 279 281 281
222 223 224 225 226 228 230 230 229 227 228 228 229 231 233 235 237 239 240 243 246 249 251 254 258 262 266 268 270 271 273 273 272 272 273 274 275 276 275 276 279 281 283 284
221 222 223 225 226 228 228 228 228 227 228 227 228 230 232 234 238 240 242 244 245 248 250 254 258 262 265 269 272 273 274 273 273 274 274 274 276 275 275 278 281 283 285 285
220 221 222 223 223 225 226 226 227 227 226 227 229 230 232 236 239 241 243 244 245 248 251 255 258 261 265 268 270 271 272 272 272 272 273 273 274 273 274 277 280 282 284 285
Height
5904 5909 5911 5915 5918 5921 5923 5925 5927 5927 5928 5929 5929 5930 5930 5929 5928 5928 5927 5926 5925 5925 5924 5922 5921 5920 5919 5918 5917 5916 5915 5913 5912 5911 5910 5909 5908 5907 5907 5906 5905 5905 5904 5904
5900 5903 5907 5910 5913 5917 5919 5922 5923 5924 5926 5927 5928 5929 5929 5928 5928 5927 5927 5926 5926 5925 5924 5923 5922 5921 5920 5919 5918 5917 5915 5914 5913 5912 5911 5910 5909 5908 5907 5906 5906 5905 5905 5904
5895 5899 5902 5906 5909 5912 5915 5918 5920 5921 5923 5925 5926 5927 5927 5927 5927 5926 5926 5926 5925 5925 5924 5923 5922 5921 5920 5919 5918 5917 5916 5915 5914 5912 5911 5910 5909 5908 5907 5907 5906 5906 5905 5904
5888 5892 5897 5900 5904 5908 5911 5914 5916 5918 5920 5922 5924 5926 5925 5925 5925 5925 5925 5925 5925 5924 5924 5923 5922 5921 5920 5919 5918 5917 5916 5915 5914 5913 5912 5911 5910 5909 5908 5907 5907 5906 5905 5904
5883 5887 5891 5895 5899 5903 5906 5909 5912 5914 5917 5919 5920 5923 5925 5923 5924 5924 5924 5924 5923 5923 5923 5922 5922 5921 5920 5919 5918 5917 5916 5915 5914 5913 5912 5910 5909 5909 5908 5907 5907 5906 5905 5904
5877 5882 5886 5890 5894 5897 5901 5905 5907 5910 5913 5915 5917 5919 5921 5921 5921 5922 5922 5922 5922 5922 5921 5921 5920 5920 5919 5918 5917 5916 5916 5915 5914 5912 5911 5910 5909 5908 5907 5907 5906 5905 5904 5904
5872 5876 5880 5884 5888 5891 5896 5900 5903 5906 5908 5911 5912 5914 5917 5917 5918 5919 5920 5920 5920 5920 5920 5919 5919 5918 5917 5917 5916 5915 5915 5914 5913 5911 5910 5909 5908 5907 5906 5906 5905 5904 5904 5903
5866 5870 5874 5878 5883 5886 5891 5895 5900 5903 5906 5907 5907 5909 5912 5913 5914 5915 5916 5917 5917 5917 5918 5917 5917 5917 5916 5915 5915 5914 5913 5912 5911 5910 5909 5908 5907 5906 5905 5904 5904 5903 5903 5902
5861 5865 5869 5873 5877 5882 5885 5889 5895 5898 5900 5903 5904 5905 5907 5909 5910 5912 5913 5913 5914 5915 5915 5915 5915 5915 5914 5914 5913 5912 5912 5911 5910 5909 5908 5907 5905 5905 5904 5903 5903 5902 5901 5900
5855 5859 5863 5867 5871 5875 5880 5884 5888 5891 5895 5898 5900 5901 5903 5904 5906 5908 5909 5910 5910 5911 5912 5912 5912 5912 5912 5911 5911 5910 5910 5909 5908 5907 5906 5904 5904 5903 5902 5901 5901 5900 5899 5898
5849 5854 5858 5862 5865 5870 5874 5878 5881 5886 5889 5894 5897 5899 5898 5900 5902 5903 5904 5905 5906 5907 5908 5909 5909 5909 5909 5909 5908 5907 5907 5906 5905 5904 5903 5902 5901 5900 5900 5899 5898 5898 5897 5896
5843 5848 5852 5856 5860 5864 5868 5872 5876 5880 5883 5887 5892 5896 5892 5894 5896 5898 5900 5901 5902 5903 5904 5905 5905 5906 5906 5905 5905 5904 5904 5903 5902 5901 5899 5899 5898 5897 5897 5897 5896 5895 5894 5894
5837 5842 5847 5851 5855 5858 5861 5865 5870 5874 5877 5881 5886 5890 5887 5889 5891 5893 5895 5896 5897 5899 5900 5901 5901 5902 5902 5902 5901 5901 5900 5900 5899 5898 5897 5896 5895 5895 5894 5894 5892 5891 5891 5890
5831 5836 5842 5847 5849 5853 5856 5860 5864 5867 5871 5875 5879 5882 5882 5884 5886 5888 5890 5891 5893 5894 5895 5896 5897 5897 5898 5898 5897 5897 5896 5896 5895 5894 5893 5892 5891 5891 5890 5890 5889 5888 5887 5887
5825 5830 5835 5839 5842 5847 5851 5854 5858 5862 5866 5870 5873 5875 5877 5878 5881 5883 5884 5886 5888 5889 5890 5892 5892 5893 5893 5893 5893 5892 5892 5891 5891 5891 5890 5888 5886 5885 5886 5885 5884 5884 5883 5882
5819 5824 5829 5833 5837 5841 5844 5848 5852 5856 5859 5863 5866 5869 5870 5873 5875 5877 5879 5881 5882 5884 5885 5887 5887 5887 5888 5888 5887 5887 5887 5887 5886 5886 5885 5884 5882 5880 5881 5881 5880 5880 5879 5878
5813 5819 5823 5828 5831 5835 5838 5842 5846 5849 5852 5856 5860 5863 5864 5867 5869 5871 5873 5875 5877 5878 5880 5881 5882 5882 5882 5882 5882 5882 5882 5882 5882 5881 5880 5879 5878 5877 5877 5876 5876 5875 5875 5874
5808 5813 5817 5822 5826 5829 5835 5836 5840 5843 5846 5850 5853 5856 5858 5861 5863 5865 5867 5869 5871 5873 5874 5875 5876 5877 5877 5877 5877 5877 5877 5877 5877 5876 5875 5875 5874 5873 5872 5872 5871 5871 5870 5869
5801 5806 5811 5815 5819 5822 5826 5830 5833 5837 5840 5843 5846 5849 5852 5855 5857 5859 5861 5864 5865 5867 5868 5869 5870 5871 5871 5872 5871 5871 5871 5871 5871 5870 5870 5869 5869 5868 5867 5866 5866 5865 5864 5864
5795 5800 5805 5809 5813 5817 5821 5824 5827 5832 5834 5837 5840 5843 5846 5849 5852 5854 5855 5857 5859 5861 5862 5864 5865 5865 5865 5865 5865 5865 5865 5865 5864 5864 5863 5863 5863 5862 5861 5860 5860 5859 5858 5857
5788 5792 5797 5801 5806 5810 5814 5817 5821 5826 5829 5831 5834 5837 5840 5843 5846 5847 5849 5851 5853 5855 5856 5858 5859 5859 5859 5859 5859 5859 5859 5858 5857 5856 5856 5857 5856 5856 5855 5854 5853 5852 5852 5851
5782 5786 5790 5795 5800 5805 5807 5810 5815 5819 5822 5825 5828 5831 5834 5837 5839 5841 5843 5845 5847 5848 5850 5851 5852 5853 5853 5853 5853 5853 5852 5852 5851 5850 5850 5850 5850 5849 5848 5848 5847 5846 5845 5844
5775 5781 5784 5789 5794 5797 5800 5804 5808 5812 5816 5819 5822 5825 5828 5831 5833 5835 5837 5839 5841 5842 5843 5844 5845 5846 5846 5846 5846 5846 5845 5845 5845 5844 5844 5843 5843 5842 5841 5841 5840 5839 5838 5837
5769 5773 5777 5781 5786 5790 5794 5798 5802 5806 5809 5812 5816 5819 5822 5825 5827 5829 5832 5833 5835 5836 5837 5838 5839 5839 5839 5839 5839 5839 5838 5838 5838 5837 5837 5836 5836 5835 5835 5834 5833 5832 5831 5830
5762 5767 5770 5775 5779 5783 5788 5792 5796 5800 5803 5806 5810 5813 5816 5818 5821 5823 5825 5827 5828 5830 5831 5832 5832 5833 5832 5832 5832 5831 5831 5831 5831 5830 5830 5830 5829 5828 5828 5827 5826 5825 5824 5823
5756 5760 5764 5768 5773 5777 5781 5785 5789 5793 5797 5800 5804 5807 5809 5812 5814 5816 5819 5820 5822 5823 5824 5825 5825 5826 5825 5825 5825 5825 5824 5824 5824 5823 5823 5823 5823 5822 5821 5821 5820 5819 5818 5817